Fairbanks, AK

11:48 PM AKST on December 11, 2019 (GMT -0900)
Fairbanks International

Weather History for PAFA - December, 1974

Change the Weather History Date:

Friday, December 20, 1974

  Actual Average Record
Temperature  
Mean Temperature -6 °F -4 °F  
Max Temperature 0 °F 5 °F 40 °F (1909)
Min Temperature -13 °F -13 °F -48 °F (1933)
Degree Days  
Heating Degree Days 72 69  
Month to date heating degree days 1364  
Since 1 July heating degree days 5495  
Cooling Degree Days 0 0  
Month to date cooling degree days 0  
Year to date cooling degree days 61  
Moisture  
Dew Point -17 °F    
Average Humidity 60    
Maximum Humidity 66    
Minimum Humidity 52    
Precipitation  
Precipitation 0.01 in 0.02 in 0.66 in (1970)
Month to date precipitation 0.39  
Year to date precipitation 10.56  
Snow  
Snow 0.00 in 0.40 in 7.60 in (1970)
Month to date snowfall 7.6  
Since 1 July snowfall 33.4  
Snow Depth -    
Sea Level Pressure  
Sea Level Pressure 29.74 in    
Wind  
Wind Speed 2 mph (South)    
Max Wind Speed 6 mph    
Max Gust Speed -    
Visibility 7 miles    
Events Snow    
T = Trace of Precipitation, MM = Missing Value Source: NWS Daily Summary

Daily Weather History Graph

Daily Weather History Graph

Search for Another Location

Airport or City:

Astronomy

Dec. 20, 1974 Rise Set
Actual Time 9:57 AM AHST 1:40 PM AHST
Civil Twilight 8:32 AM AHST 3:05 PM AHST
Nautical Twilight 7:20 AM AHST 4:17 PM AHST
Astronomical Twilight 6:18 AM AHST 5:19 PM AHST
Moon 11:03 AM AHST (12/20) 11:45 PM AHST (12/20)
Length of Visible Light 6h 33m
Length of Day
3h 42m
Waxing Crescent, 41% of the Moon is Illuminated
Dec 20
Waxing Crescent
Dec 21
First Quarter
Dec 28
Full
Jan 4
Last Quarter
Jan 12
New

Hourly Weather History & Observations

Time (AHST) Temp. Windchill Dew Point Humidity Pressure Visibility Wind Dir Wind Speed Gust Speed Precip Events Conditions
12:00 AM -0.0 °F -7.9 °F -9.0 °F 66% 29.59 in 5.0 mi SSW 3.5 mph - N/A Snow Light Snow
1:00 AM -0.9 °F - -11.0 °F 62% 29.61 in 5.0 mi Calm Calm - N/A Snow Light Snow
2:00 AM -2.0 °F -10.1 °F -11.9 °F 63% 29.62 in 6.0 mi North 3.5 mph - N/A Snow Light Snow
3:00 AM -2.0 °F -12.2 °F -13.0 °F 60% 29.62 in 7.0 mi NNE 4.6 mph - N/A Snow Light Snow
4:00 AM -2.9 °F -11.2 °F -15.0 °F 56% 29.65 in 7.0 mi WSW 3.5 mph - N/A Snow Light Snow
5:00 AM -2.9 °F -11.2 °F -14.1 °F 59% 29.66 in 5.0 mi SSE 3.5 mph - N/A Snow Light Snow
5:46 AM - - - N/A% 29.62 in 2.0 mi Calm Calm - N/A   Unknown
6:00 AM -2.9 °F - -15.0 °F 56% 29.68 in 2.0 mi Calm Calm - N/A Snow Light Snow
6:32 AM - - - N/A% 29.63 in 3.0 mi Calm Calm - N/A   Unknown
7:00 AM -5.1 °F -13.6 °F -17.0 °F 57% 29.68 in 3.0 mi SE 3.5 mph - N/A Snow Light Snow
8:00 AM -9.0 °F - -20.9 °F 56% 29.70 in 7.0 mi Calm Calm - N/A Snow Light Snow
9:00 AM -13.0 °F -22.7 °F -24.0 °F 58% 29.71 in 60.0 mi NE 3.5 mph - N/A   Scattered Clouds
10:00 AM -11.9 °F -21.5 °F -25.1 °F 52% 29.72 in 60.0 mi NE 3.5 mph - N/A   Mostly Cloudy
11:00 AM -11.9 °F - -22.0 °F 61% 29.74 in 60.0 mi Calm Calm - N/A Snow Light Snow
12:00 PM -9.9 °F - -20.0 °F 61% 29.75 in 30.0 mi Calm Calm - N/A Snow Light Snow
12:37 PM - - - N/A% 29.72 in 15.0 mi Calm Calm - N/A   Unknown
1:00 PM -9.9 °F - -20.0 °F 61% 29.78 in 10.0 mi Calm Calm - N/A Snow Light Snow
2:00 PM -9.0 °F - -18.9 °F 62% 29.79 in 10.0 mi Calm Calm - N/A Snow Light Snow
3:00 PM -8.0 °F -16.9 °F -18.0 °F 61% 29.81 in 10.0 mi SSW 3.5 mph - N/A Snow Light Snow
4:00 PM -8.0 °F -16.9 °F -18.0 °F 61% 29.81 in 7.0 mi South 3.5 mph - N/A Snow Light Snow
4:28 PM - - - N/A% 29.77 in 7.0 mi South 4.6 mph - N/A   Unknown
5:00 PM -8.0 °F -16.9 °F -18.0 °F 61% 29.83 in 7.0 mi South 3.5 mph - 0.01 in Snow Light Snow
6:00 PM -8.0 °F -16.9 °F -18.0 °F 61% 29.83 in 7.0 mi South 3.5 mph - N/A Snow Light Snow
7:00 PM -7.1 °F -15.9 °F -17.0 °F 62% 29.87 in 7.0 mi South 3.5 mph - N/A Snow Light Snow
8:00 PM -7.1 °F -15.9 °F -16.1 °F 65% 29.89 in 7.0 mi SSW 3.5 mph - N/A Snow Light Snow
9:00 PM -7.1 °F -18.1 °F -16.1 °F 65% 29.90 in 7.0 mi South 4.6 mph - N/A Snow Light Snow
10:00 PM -7.1 °F -18.1 °F -17.0 °F 62% 29.93 in 7.0 mi South 4.6 mph - N/A Snow Light Snow
11:00 PM -6.0 °F -18.6 °F -18.0 °F 56% 29.95 in 7.0 mi South 5.8 mph - N/A Snow Light Snow